Regional Weather Roundup
Issued by NWS

Home | Current Version | Previous Version | Text Only | Print | Product List | Glossary Off
Versions: 1 2 3 4 5 6 7 8 9 10 11 12 13 14 15 16 17 18 19 20 21 22 23 24 25 26 27 28 29 30 31 32 33 34 35 36 37 38 39 40 41 42 43 44 45 46 47 48 49 50

000
ASUS45 KCYS 241610
RWRWY

WYOMING REGIONAL WEATHER ROUNDUP
NATIONAL WEATHER SERVICE CHEYENNE WY
900 AM MST SAT JAN 24 2015

NOTE:  "FAIR" INDICATES FEW OR NO CLOUDS BELOW 12,000 FEET
WITH NO SIGNIFICANT WEATHER AND/OR OBSTRUCTIONS TO VISIBILITY.

WYZ001-241700-
YELLOWSTONE NATIONAL PARK

CITY           SKY/WX    TMP DP  RH WIND       PRES   REMARKS
LK YELLOWSTONE   N/A     15  13  91 CALM      30.34S
W YELLOWSTONE  NOT AVBL

$$
WYZ002>013-054>058-071-098>099-241700-
NORTHERN WYOMING

CITY           SKY/WX    TMP DP  RH WIND       PRES   REMARKS
JACKSON        CLOUDY    12  10  92 CALM      30.41R
CODY           CLOUDY    45  23  42 W21G31    30.07F
GREYBULL       CLOUDY    22  18  85 CALM      30.12F
WORLAND        CLOUDY    19  15  84 SW8       30.12F WCI   9
SHERIDAN       PTSUNNY   45  30  55 W15       29.90F
BUFFALO        CLOUDY    49  33  54 NW18      29.94R
GILLETTE       CLOUDY    41  30  65 W10       29.91F
HULETT           N/A    N/A N/A N/A MISG        N/A
NEWCASTLE      LGT RAIN  32  27  80 N3        29.95F

$$
WYZ014>020-022>026-101>103-241700-
CENTRAL WYOMING

CITY           SKY/WX    TMP DP  RH WIND       PRES   REMARKS
BIG PINEY      FAIR      12   7  80 MISG      30.31F
PINEDALE       FAIR      18  16  93 CALM      30.30R
DUBOIS         CLOUDY    34  23  64 CALM      30.23F
LANDER         FAIR      27  17  66 VRB5      30.14F WCI  22
RIVERTON       PTSUNNY   21  17  84 SE3       30.15R
CASPER         PTSUNNY   33  18  53 SW21G36   30.13R WCI  21
DOUGLAS        CLOUDY    43  17  35 NW24G35   30.02R

$$
WYZ021-027>030-104>119-241700-
SOUTHERN WYOMING

CITY           SKY/WX    TMP DP  RH WIND       PRES   REMARKS
EVANSTON       FAIR      20  16  84 SW10      30.42R WCI   9
FORT BRIDGER   FAIR      32  19  58 W17G30    30.42R WCI  21
ROCK SPRINGS   FAIR      27  17  66 W20       30.30R WCI  13
DIXON          PTSUNNY   15  10  78 CALM      30.39R
RAWLINS        PTSUNNY   27  16  63 W20G31    30.24F WCI  13
SARATOGA       FAIR      27  14  59 MISG      30.28S
LARAMIE        FAIR      33  13  43 SW16      30.14R WCI  23
CHEYENNE       FAIR      41  10  28 W12G25    30.03F
TORRINGTON     PTSUNNY   43  19  38 W20G30    29.99F
PINE BLUFFS    CLOUDY    41  14  33 W14       30.02S

$$



USA.gov is the U.S. government's official web portal to all federal, state and local government web resources and services.